Wind_Speed
3 4 2 2 4 5 5 4 5 4 6 7 5 4 4 2 2 3 3 4 7 4 2 4 3 4 5 5 7 12 12 12 14 14 15 16 15 15 16 16 15 13 10 8 8 8 6 6 7 9 11 14 17 18 15 13 13 13 13 13 14 14 13 12 11 11 12 13 14 16 18 19 18 16 12 11 11 10 11 13 16 18 19 19 18 18
4 4 1 4 5 4 2 3 4 4 6 5 5 4 2 1 2 3 1 3 5 2 3 2 3 5 6 5 6 9 9 11 17 16 17 19 17 16 17 17 17 14 12 10 10 10 8 7 7 8 10 13 15 17 14 11 12 12 12 13 14 14 13 14 14 15 15 16 17 17 18 19 17 14 11 10 10 10 10 12 16 18 19 19 19 18
4 1 4 3 3 5 4 5 6 5 5 4 3 4 1 1 2 3 2 2 3 1 3 2 3 6 6 5 6 10 11 14 19 20 20 19 17 18 18 18 18 16 15 13 12 11 9 8 7 8 9 12 14 16 14 11 11 11 12 13 13 14 14 15 16 16 17 17 17 17 18 17 14 12 10 9 8 7 9 12 15 17 19 20 19 19
3 3 4 3 6 7 5 4 6 6 4 3 3 4 1 2 1 1 2 1 2 1 1 2 1 5 5 3 5 11 16 15 16 18 19 19 19 19 18 19 19 18 17 15 14 12 10 10 9 8 9 11 13 15 14 11 10 11 11 12 13 14 14 15 16 16 16 16 16 16 16 15 12 9 7 5 4 5 9 12 15 17 19 20 19 19
1 4 4 6 6 6 5 3 5 5 3 1 3 4 2 3 3 3 2 1 3 3 1 4 3 5 3 3 5 6 10 12 13 14 16 19 20 20 19 19 20 19 18 16 14 13 11 11 9 8 9 11 12 14 13 10 10 10 10 11 12 13 14 15 15 15 15 15 14 15 15 14 11 8 5 4 5 7 10 14 16 17 19 19 19 20
1 2 5 5 5 5 5 1 2 4 2 3 2 4 5 5 4 3 4 4 4 4 2 4 3 5 4 3 6 4 2 7 9 11 15 18 19 19 21 21 21 19 18 16 14 13 12 11 10 9 9 10 12 13 12 10 9 10 10 11 12 13 14 14 15 15 15 14 15 16 16 15 13 10 8 7 8 9 12 14 16 17 18 18 18 20
1 1 3 4 5 5 4 1 3 5 4 2 1 4 5 6 7 7 6 4 2 2 3 3 4 3 6 4 6 4 4 6 5 7 13 17 18 20 22 22 21 21 19 17 16 14 13 12 11 10 9 10 11 12 11 10 9 9 9 10 11 12 13 14 15 15 15 16 16 17 17 17 14 11 9 8 7 8 11 13 14 16 17 17 18 20
2 3 5 5 5 4 4 2 3 5 5 2 1 4 6 7 7 7 6 4 1 1 3 4 4 1 4 5 5 4 4 6 7 7 10 14 18 20 22 22 22 21 19 18 17 16 15 14 12 10 9 9 10 11 11 10 9 9 9 9 10 11 13 13 14 15 15 16 16 17 17 16 14 10 8 6 4 6 9 11 13 15 16 16 18 20
2 2 2 4 4 1 1 4 5 6 4 2 1 5 6 6 6 5 5 3 1 2 3 5 2 1 4 6 5 3 1 6 8 9 9 13 19 20 21 22 22 21 19 18 17 16 16 14 13 11 10 9 9 10 10 9 8 8 8 9 10 11 12 13 14 14 15 15 16 17 17 15 13 9 6 3 3 6 8 10 12 14 15 16 18 19
1 1 5 7 3 2 4 3 4 5 3 2 4 7 6 6 6 4 4 3 3 4 2 5 1 2 4 5 4 3 1 5 8 8 8 13 18 20 22 22 22 21 19 18 18 17 16 14 13 13 11 9 8 9 9 9 8 8 8 8 9 10 11 12 13 14 14 15 15 16 16 15 12 8 5 3 4 6 8 9 11 13 15 15 18 19
3 1 4 4 2 4 3 2 2 3 4 5 4 6 5 5 5 3 3 4 3 3 5 5 2 3 2 5 3 2 3 5 6 6 6 9 15 20 21 22 23 22 20 20 20 19 17 15 15 14 12 9 8 8 8 8 7 7 7 7 8 9 10 12 13 13 14 15 15 15 15 14 12 9 6 4 5 7 8 9 11 13 14 15 18 19
6 2 1 1 1 4 5 5 4 5 5 5 4 4 3 3 4 4 4 4 3 2 5 4 1 4 1 5 4 5 6 6 5 6 6 7 14 20 22 23 23 22 21 21 22 21 19 18 17 16 13 10 7 7 8 7 7 6 6 7 7 8 9 11 12 12 13 14 14 15 15 14 12 9 7 7 8 9 10 11 11 12 14 15 17 18
4 1 3 4 2 4 5 4 4 6 6 5 4 4 3 3 3 3 3 2 1 2 2 1 1 2 3 7 7 7 8 7 8 10 11 11 15 20 22 24 24 23 23 23 23 23 21 20 20 18 14 10 7 6 7 7 6 5 5 6 7 8 8 10 11 12 13 14 14 14 14 13 11 9 8 9 10 11 12 12 11 12 14 14 16 17
3 5 5 3 1 2 5 4 0 2 2 3 3 3 3 2 3 3 3 2 2 3 2 2 1 1 4 6 6 8 8 8 11 15 16 16 16 18 21 23 24 24 24 24 24 23 22 21 21 18 14 10 6 5 6 6 6 5 4 5 6 7 7 9 10 11 12 13 14 13 13 12 10 9 9 10 10 11 12 13 12 12 13 14 15 16
1 4 3 1 1 1 3 4 4 4 2 2 4 4 3 3 2 1 2 1 2 3 3 4 1 1 2 3 4 7 8 9 11 14 15 16 16 16 17 20 23 24 25 25 25 24 22 21 21 18 14 10 6 4 6 6 5 5 4 5 5 6 7 8 10 11 12 13 13 12 12 12 10 9 9 10 10 11 12 12 11 11 12 13 14 15
2 3 6 3 1 3 2 2 4 6 3 1 2 4 1 2 4 2 2 3 2 2 3 2 2 3 4 5 5 5 7 6 7 7 7 11 14 14 16 20 22 24 25 26 25 24 22 22 21 18 14 11 7 4 5 5 5 4 3 4 4 5 6 8 9 10 11 12 12 11 11 11 10 9 9 10 10 11 12 11 10 10 12 13 14 14
2 3 6 3 2 2 4 4 3 3 1 1 1 1 2 2 6 4 0 0 3 2 2 1 3 5 3 4 6 5 5 5 7 5 2 8 11 13 17 20 22 24 25 26 26 24 23 22 21 19 15 12 7 4 4 5 5 4 3 2 4 5 5 7 9 9 11 11 11 11 11 11 10 9 9 10 11 11 12 10 9 10 11 12 13 14
4 1 6 2 2 2 4 9 6 4 3 1 1 3 2 2 4 4 1 3 4 2 3 2 3 5 3 2 5 7 6 6 5 4 1 5 10 14 17 20 22 24 25 25 25 23 22 22 22 20 16 12 7 4 4 5 5 4 3 2 3 4 5 7 8 9 10 10 10 10 11 11 10 10 9 10 11 11 11 9 9 9 10 11 12 13
4 0 7 2 1 3 2 7 5 5 5 2 3 3 2 2 1 2 2 2 3 2 4 4 4 3 2 2 5 6 5 6 5 2 1 5 11 16 18 20 22 23 24 25 25 24 23 23 22 20 17 13 9 6 5 5 6 5 4 2 2 3 4 6 7 8 9 10 10 10 10 11 11 10 10 10 11 11 11 10 9 9 10 10 11 12
3 3 3 3 1 2 3 2 1 3 5 5 3 2 2 2 3 0 1 1 1 1 2 4 4 3 4 5 4 6 7 6 5 4 4 8 14 17 19 20 23 24 25 26 26 24 24 24 23 21 18 14 10 7 5 5 6 6 4 2 1 2 4 6 6 8 9 9 9 9 10 11 11 11 10 10 11 11 12 11 9 9 9 9 9 11
3 3 2 4 3 1 1 1 4 4 2 2 2 1 2 1 2 0 1 1 2 2 1 1 3 5 6 4 6 8 8 6 6 6 6 11 16 18 19 21 23 25 26 26 26 25 24 24 23 21 18 14 12 9 6 6 7 7 4 2 1 1 4 5 6 7 8 8 9 9 10 11 12 11 10 10 11 11 12 12 9 9 9 9 8 10
1 3 3 1 2 2 4 5 5 6 5 5 3 3 3 2 2 2 2 3 1 2 2 2 2 7 6 3 5 7 6 6 8 7 8 12 16 17 19 21 23 25 26 26 26 24 24 24 23 22 19 16 14 10 7 7 7 6 4 3 2 1 4 5 5 6 7 8 8 8 10 11 12 12 11 10 10 10 12 11 10 9 9 8 9 9
3 4 3 1 2 5 7 5 2 4 4 5 2 2 3 3 4 4 1 3 1 2 1 3 0 6 7 3 4 6 6 8 9 10 12 14 15 16 18 20 21 23 25 25 25 24 23 23 23 23 21 18 15 11 8 7 7 5 4 3 2 1 4 4 4 5 6 7 7 8 9 11 12 12 11 10 10 10 11 11 10 9 8 9 10 9
3 4 4 1 4 4 5 4 3 3 5 5 2 1 3 1 3 5 4 3 2 2 1 2 1 6 6 2 2 6 8 9 10 11 14 16 15 14 16 19 20 22 24 24 24 23 22 22 24 24 23 20 17 13 9 8 7 5 4 3 2 1 4 3 3 5 5 6 7 8 9 10 11 12 11 11 10 10 11 11 9 8 8 9 10 10
2 1 3 3 4 5 6 6 6 5 3 2 2 1 2 3 4 3 2 2 1 3 4 3 3 7 6 5 4 4 5 7 9 10 13 16 16 14 15 18 20 21 23 24 24 23 22 23 26 26 24 22 18 14 11 9 8 5 4 4 2 1 3 3 3 4 4 5 6 7 8 9 11 12 12 11 10 9 9 9 8 7 7 9 10 10
3 2 4 5 3 2 1 2 3 2 1 0 1 2 1 4 5 2 1 3 1 3 3 4 5 6 8 9 9 6 5 6 8 8 11 15 16 15 15 17 20 22 23 25 26 25 24 24 26 27 26 23 20 16 12 11 9 6 5 5 2 1 2 2 2 3 3 4 6 7 7 9 10 11 12 11 10 9 8 8 8 7 7 8 10 10
4 3 3 6 6 7 6 6 6 3 1 1 2 2 2 2 4 4 3 1 2 2 1 5 6 4 10 11 11 10 7 7 7 8 11 14 16 16 16 17 20 22 23 25 26 26 26 26 27 28 27 24 21 17 14 12 10 7 6 5 3 2 1 1 1 2 3 3 5 6 7 8 10 11 12 12 11 9 8 8 8 7 7 8 9 9
5 3 1 5 4 6 7 5 1 2 2 2 2 2 2 1 3 5 2 4 4 3 4 7 5 2 8 9 10 11 8 7 7 7 10 13 14 15 16 16 19 21 23 25 27 27 27 28 28 28 28 26 22 19 16 14 11 9 7 6 4 3 1 1 1 1 2 2 4 5 6 8 9 10 11 11 11 10 9 8 8 8 8 8 7 8
6 2 2 3 2 4 3 1 1 1 1 2 3 4 2 2 5 4 5 6 6 5 6 6 5 5 7 9 10 10 8 8 10 10 11 12 12 12 14 16 19 22 24 26 28 29 28 29 29 29 28 27 23 20 18 16 14 12 10 7 5 3 2 2 1 1 1 1 3 4 6 7 8 10 10 11 11 10 10 9 9 9 8 7 7 8
4 1 1 1 1 4 4 4 2 2 2 2 3 6 5 4 5 5 5 5 6 6 7 5 4 7 8 8 10 11 12 12 12 12 11 9 8 10 14 17 19 22 24 26 28 29 29 29 29 28 28 28 25 22 19 18 17 14 11 9 6 4 3 3 2 2 1 0 2 3 5 6 7 9 9 9 10 10 10 10 10 9 9 8 8 8
3 1 1 3 2 4 6 5 5 4 1 4 6 6 5 4 3 3 3 2 3 5 5 1 2 7 7 7 9 14 14 11 10 10 9 7 6 10 14 17 19 21 23 25 26 28 28 29 30 30 29 28 26 22 20 19 17 15 13 10 7 5 4 4 3 3 2 1 1 3 4 6 7 8 8 8 9 10 10 10 10 10 10 10 9 9
4 2 1 4 3 4 4 4 5 4 2 2 7 6 3 2 1 3 3 3 4 3 4 4 3 6 6 4 8 14 13 10 10 10 9 8 6 9 13 17 19 21 22 24 25 27 28 29 30 31 29 27 25 23 20 19 19 17 14 12 8 6 5 4 4 4 3 2 1 2 4 5 6 6 7 7 8 9 10 10 10 11 11 11 11 10
3 3 1 3 2 4 4 4 3 4 5 4 6 4 5 3 2 3 4 4 5 3 1 2 5 7 5 5 7 9 10 11 11 9 9 9 7 8 12 15 17 19 20 21 23 25 26 28 29 30 29 26 24 22 20 19 19 16 14 11 9 6 5 5 6 5 4 3 2 2 3 4 5 5 6 6 7 8 9 9 10 11 12 12 12 11
2 4 2 2 2 4 7 5 4 3 2 5 6 5 5 3 2 3 7 7 6 4 3 5 6 7 8 6 5 8 9 10 10 9 9 9 8 9 11 14 16 18 18 20 21 22 24 25 27 28 28 25 23 22 20 19 18 16 13 12 10 7 6 6 7 6 5 4 3 2 3 3 4 4 5 6 7 8 8 9 9 11 12 13 12 11
3 4 2 1 2 1 4 5 3 5 7 7 6 3 5 5 5 6 8 8 6 6 5 7 8 8 10 11 11 12 11 9 8 8 9 10 9 10 12 13 14 15 17 18 20 21 22 24 26 27 28 26 25 23 22 21 20 18 16 14 12 9 7 7 7 7 6 5 4 3 3 3 3 3 4 5 7 7 8 9 9 11 12 12 12 11
5 4 3 1 2 1 1 3 2 7 7 8 9 4 3 3 3 1 6 7 6 6 5 5 8 8 11 14 13 9 8 7 6 7 10 12 12 12 12 13 12 12 14 15 16 17 18 19 22 24 25 26 25 24 23 22 21 20 19 16 13 11 9 7 8 8 7 6 5 4 4 3 3 3 3 5 6 7 8 9 9 10 11 12 12 12
5 4 3 2 2 2 2 2 3 5 7 7 7 2 3 2 2 3 1 6 7 6 6 4 7 9 12 14 11 7 5 5 6 8 13 16 16 15 15 14 13 11 11 11 13 15 15 16 19 23 25 25 25 25 24 23 22 21 20 18 16 13 10 9 8 8 8 7 6 5 5 4 4 3 2 4 6 6 7 8 8 9 11 11 12 12
4 3 4 4 2 3 3 2 3 4 5 6 7 4 0 2 5 7 4 4 7 3 3 4 5 8 10 12 13 9 6 6 5 7 14 17 16 17 18 17 14 12 9 9 11 13 15 17 19 22 26 27 26 25 25 24 23 23 22 20 18 15 12 10 9 9 8 8 7 7 6 6 5 4 3 4 5 5 6 7 8 9 10 11 11 12
5 3 4 4 1 3 4 3 3 3 5 7 8 7 4 2 7 7 5 5 7 3 2 3 5 10 11 11 12 9 8 5 4 8 16 18 16 18 20 19 15 11 8 7 9 10 13 16 18 22 26 28 28 26 25 24 24 24 23 21 19 17 14 10 8 8 9 9 9 8 7 7 6 5 3 3 4 5 6 6 7 8 9 10 11 11
6 4 4 3 2 3 4 3 3 4 5 5 6 7 2 4 6 6 4 6 7 7 9 7 10 14 14 13 11 5 4 3 7 13 19 18 16 18 20 20 17 12 8 7 7 9 11 14 17 20 24 27 29 28 25 24 25 25 24 22 20 18 14 10 7 8 9 10 10 9 9 8 7 6 5 3 4 5 5 6 7 7 8 9 10 11
3 3 2 3 3 3 4 3 3 4 4 4 6 5 2 3 4 4 3 6 6 12 13 14 16 17 17 16 12 7 8 13 15 17 18 16 16 18 19 19 19 14 9 6 6 8 11 14 16 18 21 24 28 28 26 25 26 26 25 23 21 18 13 9 8 10 11 11 11 11 10 9 8 7 6 5 4 4 5 6 7 7 7 8 9 10
1 1 1 3 4 2 4 3 2 4 3 4 5 4 3 2 3 3 5 4 9 13 14 16 18 18 18 17 15 14 17 19 19 18 17 16 18 19 18 19 18 15 11 8 6 7 10 13 16 19 22 24 27 28 27 26 26 26 26 24 20 16 14 11 10 11 12 12 12 12 11 10 10 9 7 6 5 5 5 7 7 7 7 8 9 10
3 2 1 2 3 2 2 2 1 4 3 7 6 3 4 1 4 7 8 6 10 13 15 17 18 18 18 18 18 18 19 19 19 19 18 17 18 18 19 19 17 15 13 11 10 10 11 13 16 19 22 24 27 28 28 27 26 25 25 23 19 16 15 14 12 12 13 13 13 13 12 11 10 10 8 7 7 6 6 7 8 7 8 8 9 9
3 3 2 2 2 4 3 2 3 5 5 9 6 3 3 5 5 7 7 6 12 15 15 16 18 18 18 18 18 19 19 20 21 21 20 19 18 17 18 19 18 17 14 12 12 12 13 15 17 19 22 24 26 28 28 28 26 25 24 22 19 18 17 16 13 13 15 15 14 13 13 12 11 10 10 9 8 7 6 7 8 7 8 8 9 9
3 3 3 2 2 3 4 5 3 2 3 7 8 6 8 13 14 11 8 9 13 16 15 17 19 19 18 19 18 17 19 20 21 21 22 21 19 18 17 18 18 17 16 14 13 13 14 15 17 18 21 23 26 27 28 28 26 24 22 20 20 19 19 17 15 15 16 16 15 15 14 13 12 11 11 10 8 6 6 7 7 7 7 8 8 9
2 2 2 1 3 2 2 3 3 4 3 6 9 9 11 16 16 14 14 13 14 15 16 17 18 18 19 19 18 18 19 20 20 21 21 20 20 19 18 18 18 18 17 16 15 14 14 15 16 18 20 22 24 26 27 27 27 25 21 19 19 20 19 18 16 16 17 17 16 16 15 14 14 13 12 11 9 7 6 6 7 7 7 7 7 8
1 1 0 1 1 1 2 3 3 6 4 5 11 12 12 16 16 15 15 15 15 15 15 15 16 17 18 19 20 20 19 20 21 22 20 19 19 19 19 18 18 18 19 18 17 15 14 14 15 17 19 20 22 24 26 27 27 26 22 19 19 20 19 18 17 17 19 19 18 17 16 15 14 14 13 12 10 8 7 7 7 6 6 6 6 6
1 1 1 1 1 1 4 6 8 10 4 2 10 15 15 17 18 16 16 17 17 16 16 16 17 18 18 20 22 22 20 20 21 22 21 19 18 19 20 20 19 18 18 19 18 17 16 15 15 16 17 18 20 22 25 27 27 27 24 21 20 20 20 19 18 18 19 20 19 18 17 15 15 14 13 12 11 9 8 7 7 6 6 5 4 5
0 1 2 1 1 3 4 5 10 10 3 3 8 16 16 18 20 18 17 18 18 19 19 19 18 19 20 21 23 23 23 22 21 21 21 19 18 18 20 21 22 20 19 19 19 19 18 17 16 16 16 17 18 20 23 26 27 27 25 22 21 20 20 19 19 19 20 20 20 19 17 16 16 15 14 13 11 10 9 8 7 6 5 4 4 4
1 2 1 3 1 5 4 2 4 4 4 8 15 19 18 19 20 20 20 20 19 20 21 22 22 22 21 22 23 24 25 24 23 23 22 20 20 20 20 20 21 22 21 19 19 19 19 18 18 17 17 17 18 20 22 25 27 27 26 24 22 21 20 20 20 20 21 21 21 20 18 17 16 16 15 13 12 10 10 9 8 7 6 4 4 4
5 4 3 4 3 5 4 1 2 3 7 13 18 20 20 20 19 20 21 20 18 19 20 22 25 26 26 26 25 25 26 26 26 26 25 23 22 21 21 20 19 20 21 21 20 20 20 20 20 19 19 18 18 20 22 25 27 27 27 25 24 22 21 20 20 22 23 22 21 20 19 17 17 17 16 14 12 11 10 9 8 8 7 5 4 4
Wind_Direction
81 75 76 187 210 220 228 191 173 169 133 129 123 106 134 144 279 244 260 235 156 127 251 204 212 254 247 244 227 212 207 218 228 234 238 239 239 234 231 230 232 240 241 243 252 258 273 294 313 328 336 341 347 351 355 6 13 15 18 19 20 19 17 14 10 5 360 359 357 356 356 360 3 3 12 35 43 35 23 21 24 25 24 22 22 23
57 76 346 240 216 200 178 129 120 105 95 103 109 101 110 132 270 262 231 192 153 131 282 198 198 258 250 243 236 208 201 221 224 225 233 235 238 236 234 234 235 238 235 236 244 248 259 276 295 313 326 334 341 348 353 4 13 14 17 20 20 18 16 15 11 8 6 6 3 359 358 1 3 5 22 42 44 31 18 23 27 27 26 23 23 23
35 38 279 249 159 105 72 75 87 83 82 82 93 103 103 240 252 309 11 119 123 63 283 208 201 263 264 245 231 207 207 225 225 225 233 235 236 236 236 237 236 233 231 233 239 244 253 261 277 297 315 326 334 344 351 3 15 14 16 20 20 17 17 16 11 8 9 7 3 358 359 5 7 11 32 49 46 23 13 26 30 27 26 24 23 24
42 277 255 164 119 94 61 49 80 75 72 90 107 115 199 253 143 305 335 59 76 67 205 158 204 286 287 267 242 219 218 230 234 234 240 241 242 243 243 244 239 232 230 232 236 241 246 250 263 283 304 318 328 340 348 1 16 14 15 20 20 18 18 17 12 10 10 7 1 358 3 12 15 21 42 63 50 13 14 30 31 27 27 24 23 25
210 245 162 114 90 98 95 52 88 86 41 7 156 137 177 200 167 194 193 113 23 4 103 92 20 313 310 290 269 238 222 233 241 239 242 244 245 247 249 247 243 238 235 236 236 241 246 248 256 270 291 309 324 336 343 358 17 14 14 21 20 17 18 18 15 13 11 8 3 5 11 17 25 36 60 71 40 14 19 30 29 27 27 24 23 27
266 222 150 107 58 82 104 130 166 127 55 331 214 178 180 167 145 133 118 90 31 353 331 72 41 300 317 298 262 266 233 238 239 231 236 241 240 241 242 242 241 238 237 239 242 247 248 244 248 260 279 303 321 332 340 357 18 15 13 20 20 16 17 18 17 13 11 10 9 13 16 18 24 39 56 55 35 15 19 27 27 26 27 25 25 30
149 98 115 107 80 65 58 307 218 135 93 9 209 167 153 131 125 130 123 97 76 283 293 68 106 269 318 306 269 285 267 257 260 239 238 239 235 235 238 240 237 234 233 233 237 242 242 240 243 254 273 297 317 328 340 358 14 15 12 18 20 15 15 18 17 14 11 12 13 17 19 20 26 40 55 56 36 12 15 24 26 27 28 26 27 33
171 75 59 74 77 62 42 298 227 131 99 334 266 119 115 119 130 142 124 101 157 218 331 25 101 180 307 282 285 309 265 275 281 260 248 238 233 235 237 237 235 234 233 230 231 235 237 238 243 253 268 291 312 324 339 358 8 13 12 15 19 14 13 17 18 14 13 14 16 20 22 23 28 42 57 58 27 4 12 22 27 30 31 29 30 37
193 110 128 112 78 67 227 237 194 131 79 300 230 99 104 113 117 122 106 90 37 55 343 323 42 75 279 278 315 358 279 285 273 255 248 233 231 233 235 236 234 233 233 232 233 235 236 237 240 247 261 283 305 318 337 354 3 11 11 13 16 13 13 17 18 16 14 16 18 21 25 26 27 36 48 40 357 357 9 19 28 33 34 33 34 42
246 210 187 142 112 226 232 237 178 132 91 174 131 82 74 74 76 81 87 92 40 42 282 275 43 85 278 286 326 10 293 266 259 255 250 234 231 231 232 233 231 230 230 230 231 234 236 235 236 242 255 275 295 312 333 348 359 8 9 12 11 9 13 18 18 17 16 18 20 21 25 26 26 31 32 357 339 356 6 17 31 36 37 38 39 47
316 292 176 134 140 197 156 95 114 106 111 138 104 60 54 39 48 52 54 86 61 359 268 253 138 106 305 286 267 228 224 226 237 264 263 234 229 229 230 231 228 227 226 225 227 229 230 229 230 238 248 264 282 306 328 341 353 2 6 11 8 7 13 17 18 17 17 20 22 23 25 23 24 29 20 357 359 7 10 23 35 39 41 41 42 51
340 19 200 285 214 148 100 67 44 42 72 94 68 61 58 352 17 27 359 40 66 308 270 261 144 115 212 267 246 237 247 231 219 247 251 223 222 224 226 228 226 225 223 222 224 225 223 222 225 231 239 252 270 300 325 335 346 356 1 5 4 5 13 17 18 18 19 22 24 24 23 20 21 26 19 12 18 17 17 28 36 41 45 45 45 53
330 288 304 317 232 149 91 62 26 17 38 65 68 71 63 348 10 20 337 4 37 255 272 305 66 118 229 247 250 254 258 247 229 235 237 228 224 224 224 225 223 221 220 221 222 223 222 222 226 229 234 245 260 293 321 330 338 347 352 356 0 6 14 20 19 19 22 25 27 26 22 20 20 21 19 18 20 19 19 25 35 44 49 48 47 54
328 308 325 359 267 188 118 110 31 340 36 97 120 98 74 51 35 353 303 342 320 266 280 317 319 318 286 267 237 236 258 270 262 256 250 241 235 232 228 223 220 218 218 220 221 222 222 224 227 229 233 240 250 285 316 324 329 336 342 348 358 10 18 22 22 22 25 27 30 27 21 21 20 17 19 19 19 18 16 22 34 44 50 51 49 53
57 317 288 180 230 200 133 142 163 146 110 154 159 125 118 145 107 332 262 241 299 287 298 314 299 186 273 275 219 236 276 298 293 278 259 244 241 237 227 217 214 215 215 218 221 221 223 226 227 228 230 234 241 278 310 317 319 324 332 343 359 14 20 25 27 25 27 30 32 28 21 19 19 17 18 17 16 16 13 20 36 46 52 54 51 53
95 258 256 257 175 122 121 172 139 107 63 282 160 97 62 167 135 105 166 182 217 307 303 290 250 212 230 269 281 290 298 322 335 307 253 229 228 221 212 210 210 213 214 216 219 220 221 223 225 226 226 227 235 268 303 309 309 312 323 339 360 13 18 27 32 28 29 33 33 29 23 19 19 18 17 15 14 12 11 21 41 49 53 57 53 54
90 271 285 324 28 84 129 151 123 87 102 270 100 135 241 155 117 112 141 340 70 42 306 300 293 295 319 310 311 339 334 337 3 2 232 207 208 204 205 207 208 211 213 216 219 220 221 221 221 222 223 227 235 257 293 300 291 294 311 334 3 13 21 31 35 31 31 35 34 29 24 22 21 21 18 15 16 13 13 27 48 52 54 59 56 54
138 264 298 350 53 320 118 109 68 45 101 66 308 222 213 90 81 103 101 2 36 35 311 339 308 299 351 349 319 346 341 316 340 11 53 190 196 201 205 206 208 211 213 216 218 220 220 219 218 218 220 225 229 243 278 288 275 271 278 302 3 13 24 35 37 34 35 37 35 29 25 23 23 23 19 16 19 19 20 36 55 54 55 60 57 54
121 121 298 311 143 289 39 88 43 3 34 60 168 166 101 75 6 8 66 34 21 5 310 316 309 279 211 239 301 325 301 283 303 319 201 198 201 205 206 204 205 208 211 214 217 219 218 217 217 216 217 219 219 231 261 273 263 254 253 275 354 15 30 41 39 36 38 39 37 30 25 23 22 22 19 15 19 23 27 40 54 55 55 58 58 56
99 119 271 287 230 297 2 58 248 310 10 38 95 83 23 124 157 321 73 139 107 35 301 321 340 301 232 218 232 259 255 250 258 252 230 221 216 212 208 204 204 207 211 214 217 219 217 215 215 215 217 220 219 228 252 259 251 244 246 264 311 17 33 45 42 39 42 41 39 33 26 23 22 22 19 15 18 25 30 37 48 56 54 54 57 58
63 101 198 291 324 14 328 231 199 190 140 65 69 325 325 79 130 72 15 97 113 130 180 341 330 281 255 211 198 239 254 231 213 222 232 230 226 222 216 210 208 208 212 215 217 218 216 212 212 212 215 217 217 224 241 244 239 238 242 243 229 3 35 49 45 40 43 43 40 36 29 24 23 24 21 16 17 26 33 35 45 57 52 50 56 57
112 113 159 276 353 189 238 249 203 185 169 148 162 200 186 139 119 86 331 311 66 115 162 143 294 275 262 208 202 234 253 245 232 225 233 239 234 228 223 217 214 212 213 216 218 217 215 211 209 210 211 212 215 223 234 236 232 230 230 222 221 347 40 52 46 42 46 44 41 37 33 27 24 26 23 17 17 27 35 35 42 55 53 51 55 54
154 101 100 183 227 219 250 270 190 169 147 128 134 161 142 127 120 119 259 274 79 70 135 117 109 272 266 229 214 245 264 272 263 244 241 250 247 236 226 219 217 216 215 216 217 216 215 212 209 209 211 212 215 221 230 232 224 216 219 221 219 45 47 47 44 46 47 44 40 38 36 30 27 29 24 18 17 27 36 36 40 51 54 53 52 50
123 78 69 317 300 301 300 326 25 58 84 91 38 83 119 122 133 145 177 188 144 158 155 92 307 271 277 299 262 265 275 278 271 254 247 252 254 242 227 220 216 213 213 214 214 214 213 210 208 209 211 212 213 217 223 224 214 202 211 224 223 45 46 44 42 47 47 44 41 39 37 33 32 32 26 20 19 26 36 38 40 49 53 51 49 50
140 63 84 75 1 349 343 348 356 359 37 82 312 319 129 112 101 118 145 82 42 215 154 126 254 259 274 311 311 283 285 279 266 257 251 251 253 244 226 218 215 211 210 210 209 209 209 209 209 210 212 213 213 215 216 219 214 203 213 230 239 25 44 41 33 42 46 42 41 41 39 36 36 34 29 24 23 28 36 38 41 51 53 51 48 49
134 115 117 117 124 172 235 278 260 275 346 322 300 336 50 114 117 136 94 61 328 241 150 158 229 267 294 313 319 317 323 304 285 272 258 250 250 245 229 218 213 210 209 208 207 208 209 209 209 210 212 213 215 215 214 216 213 205 215 232 245 302 37 40 21 33 43 41 44 44 39 39 40 37 32 28 29 35 39 38 43 53 56 52 48 46
105 79 120 138 158 183 190 217 224 187 114 311 307 350 12 117 119 102 90 90 210 179 193 222 212 277 303 306 312 313 318 311 295 283 269 258 251 242 231 221 214 210 209 209 208 208 208 208 209 209 211 212 215 216 215 215 215 210 217 228 240 266 360 34 5 24 38 41 47 46 42 41 42 39 34 30 34 41 41 39 44 54 55 53 49 44
104 56 111 148 177 204 191 198 219 119 155 218 240 305 327 142 117 106 153 219 172 122 289 257 190 208 284 290 298 299 303 295 283 285 286 280 264 243 228 218 210 206 206 207 209 209 207 207 208 208 210 211 213 215 214 214 216 215 221 229 244 266 287 339 320 3 25 41 53 50 46 44 43 41 35 31 36 43 43 42 46 51 50 51 52 47
113 100 180 163 293 269 219 225 40 108 227 217 210 246 262 165 158 177 222 210 159 167 248 236 177 206 263 283 287 286 288 282 281 294 302 297 276 244 223 213 207 204 204 207 211 211 209 208 207 207 209 211 212 213 212 213 214 214 216 222 238 263 267 257 254 255 328 38 60 56 52 50 47 42 36 31 36 44 45 44 46 46 44 45 49 49
109 135 222 117 355 311 319 337 15 43 340 303 258 244 243 234 217 219 236 210 183 218 238 206 205 249 257 256 267 288 299 290 286 298 305 302 274 237 220 214 210 208 209 212 215 212 210 209 208 207 208 210 211 213 212 212 214 214 215 219 232 251 252 238 227 222 242 26 69 64 58 56 52 46 38 33 36 43 46 45 46 45 42 40 43 47
77 157 243 91 69 309 329 359 13 14 293 263 284 278 268 288 274 233 235 194 195 258 269 225 293 282 266 241 264 297 311 305 296 304 314 311 276 236 223 220 218 216 216 218 218 213 210 210 209 208 209 211 212 213 213 212 214 215 216 219 228 242 243 230 220 218 225 202 90 75 64 61 57 51 42 35 38 44 46 45 46 45 42 42 42 42
56 98 49 71 62 288 318 8 350 346 19 304 308 300 259 244 237 227 230 188 186 248 300 348 328 272 261 283 302 310 324 330 318 322 334 327 287 245 235 232 229 226 224 222 219 215 213 211 211 210 210 211 213 215 214 212 212 214 216 217 222 234 241 229 215 216 212 186 125 89 72 65 62 55 46 41 42 46 48 47 47 47 44 44 43 41
86 108 121 89 92 261 291 353 353 9 24 335 291 242 196 205 264 291 292 245 202 175 162 261 248 243 266 334 330 316 328 332 322 329 343 332 307 270 257 250 244 240 235 230 226 222 220 217 214 213 212 213 215 217 216 213 213 216 218 217 219 229 239 228 214 211 204 182 150 114 84 73 67 57 50 48 48 51 52 49 50 50 48 46 45 42
86 93 123 141 135 266 296 338 359 349 316 255 239 187 181 228 242 253 280 268 230 201 203 239 256 271 286 297 281 276 294 311 316 328 342 338 324 302 284 270 258 250 245 239 235 232 229 223 219 217 215 216 217 218 216 215 215 217 218 218 220 226 235 228 214 207 197 183 171 139 106 89 78 62 53 52 54 56 56 52 51 52 50 48 47 46
112 96 110 125 115 248 321 12 355 267 239 245 268 227 202 213 186 210 269 275 243 237 253 267 273 277 283 287 283 279 284 298 317 341 358 356 343 323 308 294 277 261 253 248 243 238 233 226 221 219 218 217 217 216 216 215 214 214 216 218 221 224 232 226 214 206 196 184 178 156 129 117 96 75 57 53 57 60 58 54 53 53 53 52 50 49
146 135 141 120 117 158 28 72 201 246 258 287 296 272 193 184 154 207 299 294 251 219 210 249 271 285 305 312 312 303 297 307 335 13 24 14 1 348 332 319 304 285 272 265 259 252 245 236 227 222 219 217 215 215 216 215 213 212 214 218 220 223 229 223 212 206 197 183 179 168 148 138 119 97 72 59 60 64 61 57 56 55 54 52 49 49
159 139 161 207 196 153 148 190 248 294 311 304 289 256 136 153 163 138 263 278 258 211 187 233 285 308 321 331 339 336 326 342 1 20 22 12 2 355 349 343 332 314 298 285 275 268 261 249 236 226 221 219 216 215 215 214 213 213 214 217 218 221 226 224 212 206 198 185 180 174 161 150 137 122 91 69 66 65 63 61 58 55 53 51 49 49
145 155 178 198 215 109 116 249 297 315 290 268 262 263 314 168 171 140 115 295 282 260 210 228 278 316 326 340 349 349 4 15 348 348 3 2 355 351 350 349 343 328 312 290 272 263 255 246 236 228 224 222 219 216 215 214 213 213 215 217 219 222 227 225 212 203 197 186 180 177 169 156 147 141 115 84 76 70 68 66 60 54 53 52 50 49
60 33 115 132 157 114 130 198 225 230 248 249 254 280 332 124 157 124 62 317 284 321 356 262 300 335 342 344 344 356 32 35 295 318 347 349 347 348 349 350 350 339 321 298 275 263 256 246 237 229 226 224 222 218 215 215 215 215 217 219 221 225 230 229 214 202 195 187 180 179 174 163 156 152 137 107 93 85 79 74 65 56 54 53 51 50
41 30 81 125 186 159 150 187 216 233 253 254 259 281 311 138 131 83 32 274 279 350 6 351 344 352 356 353 351 9 50 2 301 319 337 338 341 347 347 349 352 344 328 313 286 267 257 247 239 233 228 227 225 219 215 215 215 216 219 220 223 228 234 231 212 198 194 189 183 182 178 168 162 158 151 137 116 103 95 86 73 62 57 56 54 52
40 47 88 154 170 163 167 190 256 262 253 272 289 296 270 157 98 80 203 244 324 1 8 7 3 1 360 358 357 346 335 336 331 329 332 334 339 343 343 345 349 344 333 323 294 272 261 251 246 243 238 234 228 220 215 214 215 216 218 221 226 232 233 224 206 199 198 193 185 183 181 172 165 164 163 159 143 121 107 96 85 74 67 63 59 55
130 73 65 142 145 151 165 171 277 274 267 318 318 340 40 124 172 211 246 295 2 14 22 24 19 14 8 3 359 346 341 349 353 349 344 339 337 338 337 339 344 341 332 322 303 283 268 256 250 245 239 235 230 223 217 215 216 217 218 222 228 231 227 218 209 205 203 196 186 184 183 175 171 171 174 172 156 132 114 105 99 92 83 75 67 61
177 165 232 197 169 130 108 105 205 230 287 342 342 9 41 45 240 283 310 350 22 24 28 29 25 20 13 7 5 359 355 358 360 356 351 343 338 336 333 332 336 337 330 319 308 296 280 265 255 246 240 236 231 224 218 216 217 218 220 224 227 226 222 218 213 210 206 198 189 187 184 179 177 176 178 177 160 139 123 115 112 105 94 85 75 67
185 171 199 230 177 125 139 185 202 220 292 353 19 100 61 19 1 345 340 4 22 22 23 23 21 19 13 8 7 6 4 4 3 360 356 350 343 338 332 330 331 331 327 317 306 296 284 272 261 250 243 237 231 225 220 218 219 220 222 224 223 220 220 218 214 212 208 199 192 189 186 182 182 181 182 179 167 149 134 126 121 111 98 89 79 71
225 200 172 188 199 165 184 215 244 279 342 28 55 79 52 35 36 39 36 27 25 26 24 20 18 17 15 10 6 4 4 4 4 4 2 358 353 348 341 334 330 329 327 319 307 295 284 275 264 254 246 239 232 227 221 219 221 222 222 223 221 220 221 220 216 214 209 200 193 190 188 186 186 186 185 183 174 156 140 132 126 113 101 90 81 73
255 207 138 159 238 247 236 242 293 342 12 51 56 52 40 34 32 33 31 29 28 24 18 17 15 14 15 13 6 2 1 358 356 356 358 359 357 355 352 345 336 330 326 321 312 300 287 275 263 255 248 241 234 227 221 219 222 223 223 222 221 220 222 223 220 216 209 200 194 192 191 191 191 190 189 187 182 168 151 140 130 117 105 93 83 76
306 167 100 339 259 279 263 254 316 342 339 38 39 27 19 17 16 14 12 11 11 9 5 5 5 3 6 8 4 359 356 354 352 349 349 353 356 355 355 352 344 335 328 322 316 306 292 279 267 257 250 243 236 228 222 220 220 221 222 224 223 222 223 224 223 218 209 200 195 195 195 195 196 195 193 192 188 178 162 149 135 123 112 99 87 79
45 52 325 291 225 238 238 256 315 332 305 110 32 12 2 358 356 357 358 354 352 352 349 349 351 351 352 356 356 351 348 349 350 347 344 346 350 351 351 349 345 339 331 322 314 306 297 285 274 264 254 246 239 230 223 219 219 218 218 221 223 224 224 224 223 218 209 201 197 198 197 197 200 201 198 196 192 184 170 154 140 128 118 105 92 81
181 306 275 202 320 309 275 287 330 336 277 219 349 353 352 347 342 342 345 342 339 339 338 337 339 342 342 344 345 343 341 341 343 342 339 336 336 338 341 343 342 338 332 323 312 304 297 287 277 268 260 250 240 231 224 220 218 217 217 218 221 224 226 225 220 215 208 202 199 200 200 199 200 202 201 199 195 187 177 163 149 138 127 115 104 93
202 253 192 109 9 291 267 268 360 353 276 290 322 334 336 336 334 331 331 332 334 335 334 331 329 328 330 333 335 336 335 333 333 333 330 327 327 326 327 332 335 334 331 325 311 299 291 285 275 266 259 251 241 232 226 221 218 217 216 217 219 223 226 225 218 210 206 203 201 202 203 202 201 200 200 200 199 195 188 177 164 153 145 135 124 111
224 228 202 163 201 246 243 231 2 329 289 299 316 323 323 325 326 322 322 325 326 326 327 328 325 323 321 323 326 330 329 327 326 326 323 320 319 319 319 321 324 325 325 322 313 300 289 280 271 261 255 250 243 234 227 223 219 216 215 216 219 222 225 224 218 210 205 203 203 204 205 205 202 199 198 198 199 202 200 191 179 167 160 155 143 127
Height
1505 1510 1514 1515 1515 1514 1512 1513 1514 1514 1515 1517 1520 1523 1525 1526 1525 1523 1521 1519 1519 1524 1526 1525 1526 1525 1523 1523 1523 1523 1524 1524 1524 1524 1524 1524 1525 1526 1527 1527 1528 1529 1530 1531 1531 1531 1531 1531 1530 1530 1529 1528 1527 1526 1524 1523 1522 1521 1520 1519 1519 1518 1517 1517 1516 1515 1514 1513 1512 1511 1510 1508 1507 1506 1505 1504 1503 1502 1501 1501 1500 1499 1497 1496 1494 1492
1506 1512 1514 1512 1512 1512 1512 1514 1515 1515 1516 1517 1519 1521 1524 1526 1524 1521 1520 1519 1519 1524 1526 1526 1526 1524 1522 1522 1522 1523 1523 1522 1521 1522 1522 1522 1523 1525 1525 1526 1527 1529 1530 1530 1531 1531 1531 1530 1530 1530 1529 1528 1527 1526 1525 1524 1522 1522 1521 1520 1519 1518 1518 1517 1516 1515 1514 1513 1512 1511 1510 1509 1508 1507 1506 1505 1504 1503 1502 1502 1501 1500 1498 1496 1494 1492
1511 1513 1512 1511 1511 1512 1513 1515 1515 1515 1516 1518 1519 1521 1523 1524 1523 1521 1521 1520 1521 1523 1525 1527 1526 1522 1521 1521 1521 1521 1521 1519 1519 1520 1521 1521 1523 1524 1524 1525 1526 1528 1529 1529 1530 1530 1530 1530 1530 1530 1529 1528 1528 1526 1525 1524 1523 1522 1521 1520 1520 1519 1518 1517 1516 1516 1514 1513 1512 1511 1511 1510 1509 1507 1506 1506 1505 1504 1503 1503 1502 1501 1499 1497 1495 1493
1516 1514 1511 1511 1511 1511 1514 1515 1515 1516 1517 1519 1520 1520 1522 1523 1524 1524 1523 1523 1522 1523 1525 1526 1526 1522 1520 1519 1518 1518 1518 1517 1519 1519 1520 1521 1521 1522 1523 1524 1525 1526 1527 1528 1529 1529 1530 1530 1530 1530 1529 1529 1528 1527 1526 1524 1523 1523 1522 1521 1520 1520 1518 1518 1517 1516 1515 1514 1513 1512 1511 1511 1509 1508 1507 1507 1506 1505 1504 1504 1503 1501 1500 1498 1496 1494
1515 1512 1510 1511 1512 1512 1515 1516 1515 1515 1518 1520 1519 1519 1520 1520 1522 1524 1523 1523 1523 1524 1523 1524 1527 1522 1519 1520 1517 1516 1517 1517 1518 1519 1519 1519 1520 1521 1522 1522 1523 1525 1526 1527 1528 1529 1529 1529 1530 1530 1530 1529 1528 1527 1526 1525 1524 1523 1522 1521 1520 1520 1519 1518 1518 1517 1516 1515 1514 1513 1512 1511 1510 1509 1508 1507 1506 1505 1504 1504 1503 1502 1500 1499 1497 1495
1512 1511 1510 1511 1512 1513 1515 1515 1515 1515 1516 1519 1517 1516 1517 1517 1520 1523 1523 1524 1528 1530 1525 1526 1534 1528 1519 1520 1517 1515 1517 1516 1516 1517 1516 1517 1518 1519 1520 1520 1522 1523 1525 1526 1527 1528 1529 1529 1530 1530 1530 1529 1528 1527 1526 1525 1524 1523 1523 1522 1521 1521 1520 1519 1519 1518 1517 1516 1515 1514 1513 1511 1510 1509 1508 1507 1506 1505 1505 1505 1504 1503 1501 1500 1498 1496
1511 1511 1510 1512 1513 1514 1515 1514 1514 1515 1516 1518 1516 1515 1517 1517 1519 1523 1523 1525 1532 1534 1527 1526 1536 1535 1524 1517 1516 1517 1518 1516 1515 1515 1514 1515 1516 1516 1517 1518 1520 1522 1523 1525 1527 1527 1528 1529 1529 1529 1529 1529 1528 1528 1527 1525 1525 1524 1523 1522 1522 1521 1521 1520 1519 1519 1518 1517 1515 1514 1513 1511 1510 1509 1508 1508 1507 1506 1506 1506 1505 1504 1502 1501 1499 1497
1509 1510 1512 1513 1513 1515 1515 1513 1513 1513 1515 1518 1516 1515 1517 1517 1519 1523 1523 1526 1531 1533 1530 1528 1532 1538 1531 1519 1517 1519 1517 1516 1515 1513 1512 1512 1513 1514 1515 1516 1518 1520 1522 1524 1525 1526 1527 1528 1529 1529 1529 1529 1529 1528 1527 1526 1525 1525 1524 1523 1522 1522 1521 1521 1520 1519 1519 1517 1516 1515 1514 1512 1511 1510 1509 1509 1508 1507 1507 1507 1506 1505 1503 1502 1500 1498
1507 1509 1511 1512 1514 1515 1513 1511 1511 1512 1515 1517 1516 1515 1517 1518 1521 1523 1523 1527 1531 1533 1534 1532 1531 1539 1536 1521 1519 1520 1517 1516 1513 1509 1510 1509 1510 1512 1512 1514 1516 1518 1521 1522 1524 1525 1527 1528 1528 1529 1529 1529 1529 1528 1527 1527 1526 1525 1524 1523 1523 1523 1522 1521 1521 1520 1519 1518 1517 1516 1514 1513 1511 1511 1510 1509 1508 1508 1508 1507 1507 1505 1504 1503 1501 1499
1507 1508 1508 1509 1512 1512 1510 1510 1510 1510 1514 1516 1515 1516 1518 1521 1523 1525 1526 1527 1531 1535 1536 1534 1533 1540 1537 1520 1517 1521 1516 1513 1509 1505 1506 1506 1508 1510 1510 1513 1514 1517 1520 1521 1523 1525 1526 1527 1528 1528 1528 1529 1529 1528 1528 1527 1526 1526 1525 1524 1523 1523 1523 1522 1521 1521 1520 1519 1518 1517 1515 1514 1512 1511 1510 1509 1509 1509 1508 1508 1507 1506 1505 1503 1502 1500
1507 1506 1505 1507 1508 1508 1508 1510 1511 1511 1512 1514 1515 1517 1519 1522 1524 1527 1530 1528 1533 1539 1536 1533 1533 1538 1538 1522 1515 1516 1510 1506 1505 1503 1504 1505 1506 1507 1508 1511 1513 1515 1518 1520 1522 1523 1525 1526 1527 1528 1528 1529 1529 1528 1528 1527 1526 1526 1525 1524 1524 1524 1523 1522 1522 1521 1521 1520 1518 1517 1516 1514 1513 1512 1511 1510 1509 1509 1509 1508 1507 1507 1505 1504 1503 1501
1507 1506 1506 1505 1505 1507 1507 1510 1512 1512 1513 1514 1516 1519 1523 1527 1527 1528 1531 1531 1540 1543 1535 1535 1534 1536 1539 1525 1511 1510 1506 1504 1505 1502 1502 1503 1504 1505 1506 1509 1511 1514 1517 1518 1520 1522 1524 1525 1525 1527 1527 1528 1528 1528 1528 1527 1527 1526 1525 1525 1524 1524 1524 1523 1522 1522 1521 1520 1519 1518 1516 1515 1513 1512 1511 1510 1510 1509 1509 1508 1508 1507 1506 1505 1503 1502
1509 1507 1507 1506 1504 1505 1507 1512 1515 1514 1515 1516 1518 1523 1530 1535 1536 1536 1540 1542 1545 1541 1534 1536 1535 1534 1534 1518 1505 1505 1503 1502 1503 1500 1500 1501 1501 1503 1504 1507 1509 1512 1515 1517 1519 1520 1522 1523 1524 1526 1526 1527 1528 1528 1528 1528 1527 1526 1525 1525 1525 1524 1524 1523 1523 1522 1522 1521 1520 1518 1517 1515 1514 1512 1511 1511 1510 1510 1509 1509 1508 1507 1506 1505 1504 1503
1515 1511 1507 1506 1506 1504 1506 1512 1517 1517 1518 1518 1520 1525 1531 1540 1545 1547 1550 1550 1546 1537 1534 1537 1536 1533 1527 1511 1502 1503 1500 1500 1500 1498 1498 1499 1500 1501 1503 1505 1508 1511 1513 1515 1517 1519 1520 1522 1523 1525 1526 1527 1528 1528 1528 1528 1527 1526 1525 1525 1525 1525 1524 1524 1523 1523 1522 1521 1520 1519 1517 1516 1515 1513 1512 1512 1511 1510 1510 1509 1509 1508 1507 1506 1505 1504
1524 1521 1510 1507 1507 1505 1506 1510 1512 1515 1518 1520 1521 1522 1526 1533 1540 1545 1547 1546 1545 1540 1536 1536 1534 1530 1523 1508 1501 1500 1499 1499 1498 1496 1497 1497 1499 1501 1502 1505 1507 1509 1512 1513 1516 1518 1519 1521 1522 1524 1526 1527 1528 1528 1528 1528 1527 1526 1526 1525 1525 1525 1525 1524 1524 1523 1522 1522 1521 1519 1518 1516 1515 1514 1513 1513 1512 1511 1510 1510 1509 1508 1507 1507 1505 1504
1529 1523 1508 1505 1506 1505 1507 1509 1509 1512 1518 1523 1523 1522 1523 1523 1527 1541 1549 1548 1549 1545 1538 1536 1531 1524 1516 1504 1499 1501 1499 1498 1497 1495 1496 1497 1499 1501 1502 1504 1506 1508 1510 1512 1514 1517 1518 1520 1522 1524 1525 1527 1528 1528 1528 1527 1527 1526 1526 1526 1526 1526 1525 1524 1524 1524 1523 1522 1521 1520 1519 1517 1516 1515 1514 1513 1513 1512 1511 1510 1510 1509 1508 1507 1506 1505
1526 1519 1507 1505 1507 1506 1507 1508 1508 1511 1517 1522 1522 1521 1523 1522 1522 1536 1549 1553 1554 1547 1539 1538 1529 1518 1513 1504 1498 1500 1497 1496 1497 1496 1496 1498 1498 1500 1501 1502 1505 1507 1509 1511 1513 1515 1517 1519 1521 1523 1525 1526 1527 1528 1528 1527 1526 1526 1525 1525 1526 1526 1525 1525 1524 1524 1523 1523 1522 1520 1519 1518 1517 1516 1515 1514 1513 1512 1511 1511 1510 1509 1509 1508 1507 1506
1517 1516 1509 1508 1509 1508 1507 1507 1507 1509 1512 1517 1520 1520 1522 1524 1523 1528 1538 1546 1549 1544 1538 1539 1534 1525 1522 1512 1500 1498 1497 1496 1497 1497 1497 1498 1498 1500 1501 1502 1504 1506 1508 1510 1512 1515 1517 1518 1521 1523 1524 1526 1527 1527 1527 1526 1526 1526 1525 1525 1526 1526 1525 1525 1524 1524 1524 1523 1522 1521 1519 1518 1518 1517 1516 1515 1514 1513 1512 1512 1511 1510 1509 1509 1508 1507
1512 1516 1513 1510 1510 1510 1507 1508 1512 1512 1511 1513 1516 1518 1520 1526 1528 1528 1534 1540 1545 1549 1544 1539 1537 1531 1525 1514 1501 1498 1498 1496 1497 1498 1498 1498 1498 1498 1500 1502 1504 1505 1507 1510 1511 1514 1516 1517 1520 1522 1524 1525 1526 1526 1526 1526 1526 1525 1525 1525 1525 1526 1525 1525 1525 1524 1524 1523 1522 1521 1520 1519 1518 1517 1517 1516 1515 1514 1513 1512 1511 1511 1510 1509 1509 1508
1511 1516 1517 1512 1509 1510 1509 1511 1516 1516 1515 1513 1515 1518 1520 1525 1529 1530 1534 1537 1540 1549 1550 1542 1535 1525 1516 1510 1502 1498 1497 1495 1496 1497 1496 1496 1497 1497 1499 1501 1502 1504 1506 1508 1510 1512 1514 1517 1519 1521 1523 1525 1525 1526 1526 1525 1525 1525 1525 1525 1525 1526 1525 1525 1525 1524 1524 1523 1522 1521 1520 1519 1518 1518 1517 1516 1516 1515 1514 1513 1512 1511 1511 1510 1509 1509
1510 1515 1518 1513 1511 1513 1513 1512 1513 1513 1515 1517 1518 1521 1522 1526 1530 1531 1534 1537 1536 1541 1550 1551 1542 1521 1505 1503 1500 1496 1495 1495 1495 1495 1495 1495 1495 1496 1498 1499 1501 1503 1504 1506 1509 1511 1513 1516 1519 1521 1523 1524 1525 1525 1525 1525 1525 1525 1525 1525 1525 1525 1525 1525 1525 1524 1524 1523 1522 1522 1521 1520 1519 1518 1518 1517 1516 1515 1514 1513 1512 1512 1511 1511 1510 1510
1509 1513 1516 1517 1515 1514 1512 1510 1511 1510 1511 1513 1514 1517 1520 1523 1528 1531 1536 1539 1537 1538 1544 1549 1544 1521 1500 1498 1498 1495 1495 1495 1494 1494 1493 1493 1493 1495 1497 1498 1500 1502 1503 1506 1508 1510 1513 1515 1518 1520 1522 1523 1524 1525 1525 1525 1525 1525 1525 1525 1525 1525 1525 1525 1525 1524 1524 1523 1523 1522 1521 1520 1519 1518 1518 1517 1517 1516 1515 1514 1513 1512 1512 1512 1511 1510
1506 1510 1514 1518 1516 1512 1510 1510 1511 1511 1511 1512 1512 1516 1519 1520 1522 1528 1534 1535 1536 1542 1542 1544 1543 1520 1497 1497 1498 1496 1496 1495 1494 1494 1493 1492 1492 1494 1496 1498 1500 1502 1503 1506 1507 1510 1513 1515 1518 1519 1521 1522 1523 1524 1525 1525 1525 1525 1525 1525 1525 1525 1525 1525 1525 1524 1524 1524 1523 1523 1522 1521 1520 1519 1519 1518 1517 1516 1516 1514 1513 1513 1513 1512 1511 1511
1505 1511 1515 1518 1515 1511 1509 1508 1510 1511 1511 1512 1514 1517 1519 1519 1519 1522 1527 1528 1532 1540 1540 1542 1543 1519 1496 1497 1499 1496 1496 1494 1493 1493 1492 1492 1492 1493 1495 1496 1498 1501 1503 1505 1507 1509 1513 1515 1517 1518 1519 1521 1522 1524 1525 1525 1525 1525 1524 1525 1525 1525 1525 1525 1525 1524 1524 1524 1523 1523 1522 1521 1521 1520 1519 1519 1518 1517 1516 1515 1514 1513 1513 1513 1512 1512
1505 1513 1517 1522 1526 1524 1520 1518 1515 1513 1513 1513 1515 1518 1519 1519 1520 1521 1526 1527 1528 1533 1534 1537 1537 1516 1497 1497 1497 1495 1496 1493 1492 1492 1491 1491 1491 1492 1494 1495 1497 1500 1501 1504 1506 1508 1511 1512 1514 1516 1518 1520 1521 1523 1524 1524 1524 1524 1524 1524 1524 1524 1525 1524 1524 1524 1524 1524 1524 1523 1523 1522 1521 1521 1520 1519 1518 1517 1517 1516 1515 1514 1514 1513 1513 1513
1506 1515 1516 1521 1532 1537 1534 1530 1523 1517 1516 1517 1517 1517 1518 1519 1520 1519 1524 1527 1528 1534 1535 1531 1525 1511 1498 1496 1494 1493 1495 1493 1491 1492 1490 1490 1490 1491 1493 1494 1496 1498 1499 1502 1504 1505 1508 1509 1511 1514 1516 1518 1520 1522 1523 1523 1524 1523 1523 1524 1524 1524 1524 1524 1524 1524 1524 1524 1524 1524 1523 1523 1522 1521 1521 1520 1519 1518 1517 1516 1516 1515 1514 1514 1514 1513
1508 1516 1516 1515 1518 1522 1522 1520 1519 1517 1517 1517 1515 1515 1517 1520 1519 1518 1523 1525 1525 1531 1531 1521 1518 1513 1503 1498 1495 1493 1493 1492 1491 1491 1490 1489 1489 1490 1491 1493 1494 1496 1498 1500 1501 1503 1506 1507 1509 1512 1514 1516 1518 1520 1522 1523 1523 1523 1523 1523 1523 1524 1524 1524 1524 1524 1524 1524 1524 1524 1524 1523 1522 1522 1521 1521 1519 1518 1518 1517 1516 1515 1515 1514 1514 1514
1506 1512 1518 1516 1512 1513 1515 1514 1517 1517 1515 1515 1515 1514 1515 1518 1519 1517 1519 1520 1521 1528 1525 1515 1517 1517 1506 1499 1497 1494 1493 1492 1490 1490 1489 1488 1488 1489 1490 1492 1493 1495 1497 1498 1499 1501 1503 1505 1507 1510 1512 1515 1517 1518 1520 1521 1522 1522 1522 1522 1523 1523 1523 1523 1523 1524 1524 1524 1524 1524 1524 1524 1523 1522 1522 1521 1520 1519 1518 1518 1517 1516 1515 1515 1515 1515
1505 1511 1519 1519 1514 1514 1516 1517 1518 1517 1516 1517 1516 1513 1513 1515 1517 1516 1515 1515 1518 1521 1516 1512 1516 1515 1505 1499 1497 1493 1492 1491 1489 1489 1488 1487 1488 1488 1489 1491 1492 1493 1495 1496 1497 1499 1501 1503 1505 1508 1511 1513 1515 1516 1518 1520 1521 1521 1521 1522 1522 1522 1523 1523 1523 1523 1523 1524 1524 1524 1524 1524 1523 1523 1522 1522 1521 1520 1519 1519 1518 1517 1516 1516 1515 1515
1505 1512 1519 1519 1514 1514 1516 1518 1518 1516 1516 1516 1514 1513 1513 1513 1516 1516 1516 1517 1517 1514 1512 1514 1518 1512 1502 1498 1495 1492 1491 1490 1488 1488 1487 1487 1487 1488 1489 1490 1490 1492 1493 1493 1495 1497 1500 1502 1504 1507 1509 1511 1513 1514 1516 1518 1519 1520 1520 1521 1521 1522 1523 1523 1523 1523 1523 1523 1524 1524 1525 1524 1524 1524 1523 1523 1522 1521 1520 1519 1518 1518 1517 1516 1516 1516
1504 1513 1521 1518 1515 1516 1517 1518 1519 1519 1519 1517 1513 1513 1514 1514 1516 1517 1515 1516 1517 1514 1512 1515 1517 1509 1499 1496 1494 1491 1491 1489 1487 1487 1487 1486 1487 1487 1488 1489 1490 1491 1492 1492 1494 1496 1499 1501 1503 1505 1507 1509 1511 1513 1514 1516 1518 1519 1520 1520 1521 1521 1522 1522 1523 1523 1523 1523 1524 1524 1525 1525 1524 1524 1524 1523 1523 1522 1521 1520 1519 1518 1518 1517 1516 1516
1505 1514 1519 1516 1516 1520 1520 1521 1521 1519 1519 1517 1511 1510 1511 1511 1511 1511 1510 1511 1511 1510 1510 1514 1513 1505 1496 1494 1493 1490 1490 1489 1488 1487 1487 1487 1487 1487 1488 1488 1489 1489 1490 1491 1493 1495 1497 1499 1501 1503 1505 1508 1510 1512 1513 1515 1516 1518 1518 1519 1520 1521 1521 1522 1522 1523 1523 1523 1523 1524 1524 1525 1525 1525 1524 1524 1523 1523 1522 1521 1520 1519 1518 1517 1517 1517
1510 1512 1515 1518 1520 1520 1522 1525 1520 1517 1522 1522 1511 1506 1507 1508 1509 1509 1508 1508 1508 1508 1510 1511 1507 1499 1495 1495 1494 1491 1490 1489 1488 1487 1487 1486 1486 1487 1487 1487 1488 1488 1489 1490 1491 1493 1495 1496 1498 1501 1503 1506 1509 1510 1512 1514 1515 1517 1518 1519 1520 1520 1521 1521 1522 1522 1523 1523 1523 1524 1524 1525 1525 1525 1525 1525 1524 1523 1523 1522 1521 1520 1519 1518 1518 1518
1513 1511 1515 1521 1520 1520 1523 1522 1520 1524 1530 1522 1508 1504 1506 1505 1507 1508 1505 1504 1506 1506 1505 1504 1500 1497 1496 1495 1494 1492 1490 1489 1488 1487 1487 1487 1486 1486 1486 1486 1486 1487 1488 1489 1490 1491 1493 1495 1497 1500 1502 1505 1507 1509 1512 1513 1515 1517 1518 1519 1519 1520 1520 1521 1521 1522 1522 1523 1523 1524 1524 1525 1525 1525 1525 1525 1525 1524 1524 1523 1522 1521 1520 1519 1519 1519
1511 1512 1518 1522 1521 1523 1525 1523 1528 1533 1526 1510 1503 1506 1507 1505 1506 1507 1503 1502 1503 1504 1502 1501 1498 1496 1495 1493 1491 1490 1489 1488 1488 1487 1487 1487 1487 1487 1486 1486 1486 1486 1487 1487 1488 1489 1491 1494 1496 1498 1501 1503 1506 1508 1510 1512 1514 1516 1517 1518 1518 1519 1520 1521 1521 1522 1522 1522 1523 1523 1524 1524 1525 1525 1526 1525 1525 1525 1525 1524 1523 1522 1521 1520 1520 1520
1509 1512 1517 1521 1524 1527 1526 1529 1533 1528 1514 1505 1503 1503 1504 1505 1505 1505 1504 1501 1500 1501 1501 1499 1496 1495 1494 1492 1490 1489 1488 1488 1488 1488 1488 1488 1487 1487 1486 1486 1485 1485 1485 1486 1487 1488 1489 1491 1494 1496 1498 1501 1504 1506 1509 1511 1512 1514 1515 1516 1517 1519 1519 1520 1520 1521 1522 1522 1523 1523 1524 1524 1525 1525 1526 1526 1526 1525 1525 1524 1523 1522 1522 1521 1521 1521
1508 1510 1512 1518 1525 1527 1527 1529 1526 1519 1514 1508 1501 1499 1501 1501 1500 1503 1506 1502 1498 1498 1499 1497 1496 1495 1493 1491 1490 1489 1489 1488 1488 1488 1488 1488 1488 1487 1487 1486 1485 1485 1485 1485 1486 1487 1489 1491 1493 1495 1497 1500 1502 1504 1507 1509 1511 1512 1514 1515 1516 1517 1518 1519 1519 1520 1521 1522 1522 1523 1524 1524 1525 1525 1526 1526 1526 1526 1526 1525 1524 1523 1523 1522 1522 1521
1507 1509 1508 1514 1524 1527 1528 1528 1526 1525 1523 1510 1499 1498 1499 1498 1498 1500 1504 1503 1498 1497 1498 1497 1496 1496 1493 1492 1492 1490 1489 1490 1492 1491 1489 1489 1489 1488 1487 1486 1485 1484 1484 1485 1486 1487 1488 1490 1492 1494 1496 1498 1500 1503 1505 1507 1509 1511 1512 1513 1515 1516 1517 1518 1519 1519 1520 1521 1522 1523 1523 1524 1525 1525 1526 1526 1526 1526 1526 1525 1524 1524 1523 1523 1523 1522
1508 1511 1510 1513 1522 1527 1526 1527 1528 1527 1517 1504 1499 1498 1498 1498 1497 1498 1506 1508 1500 1496 1498 1497 1496 1496 1494 1493 1493 1491 1492 1495 1496 1492 1490 1489 1489 1488 1487 1486 1485 1484 1484 1484 1485 1486 1488 1489 1491 1493 1495 1497 1499 1501 1503 1506 1508 1510 1511 1512 1513 1515 1516 1517 1518 1519 1520 1521 1521 1522 1523 1523 1524 1525 1526 1526 1526 1526 1526 1526 1525 1525 1524 1524 1524 1523
1510 1512 1514 1516 1520 1523 1523 1524 1525 1519 1507 1501 1500 1499 1499 1498 1496 1502 1516 1515 1500 1496 1499 1497 1496 1496 1495 1494 1494 1493 1495 1497 1496 1493 1491 1490 1489 1488 1487 1486 1485 1485 1484 1484 1485 1486 1487 1488 1490 1491 1493 1494 1496 1499 1502 1504 1506 1508 1509 1511 1512 1513 1515 1516 1517 1518 1519 1520 1521 1521 1522 1523 1524 1525 1525 1526 1526 1526 1526 1526 1526 1526 1525 1525 1525 1524
1514 1516 1520 1520 1519 1522 1523 1522 1521 1514 1504 1501 1501 1499 1498 1498 1500 1510 1519 1510 1499 1498 1499 1497 1497 1497 1496 1496 1496 1495 1495 1496 1494 1492 1491 1490 1490 1489 1488 1487 1486 1485 1485 1485 1485 1486 1486 1487 1488 1489 1491 1493 1495 1498 1500 1502 1504 1506 1508 1510 1511 1512 1514 1515 1516 1518 1519 1519 1520 1521 1522 1522 1523 1524 1525 1526 1526 1526 1527 1526 1526 1526 1526 1525 1525 1525
1515 1518 1522 1521 1520 1524 1524 1522 1521 1514 1504 1500 1501 1499 1498 1501 1506 1510 1508 1502 1500 1500 1498 1497 1498 1497 1496 1497 1496 1496 1495 1493 1493 1492 1491 1491 1490 1489 1488 1488 1487 1486 1486 1485 1485 1486 1486 1487 1487 1488 1490 1491 1493 1496 1498 1500 1502 1504 1506 1508 1509 1511 1513 1515 1515 1517 1518 1519 1519 1520 1521 1522 1523 1524 1524 1525 1526 1526 1527 1526 1526 1526 1526 1526 1525 1525
1511 1514 1517 1518 1519 1523 1524 1523 1522 1516 1505 1500 1501 1500 1500 1503 1506 1504 1501 1501 1501 1499 1498 1498 1498 1497 1497 1496 1495 1495 1494 1492 1492 1491 1490 1490 1490 1489 1489 1488 1487 1487 1486 1486 1486 1486 1486 1486 1486 1487 1488 1489 1492 1494 1497 1499 1500 1502 1504 1506 1508 1511 1513 1514 1515 1516 1517 1518 1519 1520 1521 1521 1522 1523 1524 1525 1526 1526 1527 1527 1527 1527 1526 1526 1526 1526
1509 1511 1513 1513 1514 1517 1519 1518 1515 1510 1504 1501 1501 1502 1504 1504 1503 1501 1501 1502 1501 1499 1499 1498 1497 1497 1497 1495 1495 1495 1493 1493 1492 1491 1490 1490 1489 1488 1488 1488 1487 1487 1486 1486 1486 1485 1485 1485 1485 1486 1487 1488 1490 1492 1495 1497 1499 1501 1503 1505 1507 1510 1511 1512 1514 1515 1516 1517 1518 1519 1520 1521 1522 1523 1524 1525 1525 1526 1526 1527 1527 1527 1527 1526 1526 1526
1508 1507 1507 1508 1509 1509 1509 1508 1506 1504 1503 1503 1502 1503 1504 1503 1502 1502 1502 1501 1501 1500 1499 1499 1498 1498 1497 1495 1495 1494 1493 1493 1492 1491 1491 1490 1488 1488 1487 1487 1487 1486 1486 1486 1486 1485 1485 1484 1485 1485 1486 1487 1489 1491 1493 1496 1498 1500 1502 1504 1506 1508 1509 1511 1512 1514 1515 1516 1517 1518 1519 1520 1521 1522 1523 1524 1525 1526 1526 1527 1527 1527 1527 1527 1527 1527
1506 1505 1505 1505 1506 1505 1504 1503 1503 1503 1503 1503 1502 1503 1503 1502 1502 1501 1501 1501 1501 1500 1499 1499 1499 1498 1497 1496 1495 1494 1494 1493 1492 1491 1490 1489 1488 1488 1487 1486 1486 1486 1485 1485 1485 1484 1484 1484 1484 1485 1485 1486 1488 1490 1492 1495 1497 1499 1501 1503 1505 1507 1508 1510 1511 1513 1514 1515 1516 1517 1518 1519 1520 1521 1523 1524 1525 1525 1526 1526 1527 1527 1527 1527 1527 1527
1506 1505 1505 1505 1505 1506 1505 1503 1502 1502 1501 1501 1501 1501 1500 1501 1501 1501 1501 1500 1500 1500 1499 1499 1498 1497 1497 1496 1494 1494 1493 1492 1491 1491 1490 1488 1488 1487 1486 1486 1486 1485 1485 1484 1484 1484 1484 1483 1483 1483 1484 1485 1487 1488 1491 1493 1495 1498 1500 1503 1504 1506 1507 1508 1510 1511 1513 1514 1515 1516 1517 1518 1520 1521 1522 1523 1524 1525 1526 1526 1526 1527 1527 1527 1527 1527
1506 1505 1506 1506 1506 1505 1504 1502 1500 1500 1500 1500 1500 1500 1499 1499 1499 1500 1500 1500 1499 1499 1498 1498 1497 1496 1495 1495 1494 1493 1492 1492 1491 1490 1489 1488 1487 1486 1486 1486 1485 1484 1484 1484 1483 1483 1483 1482 1482 1482 1483 1484 1485 1487 1489 1492 1494 1496 1499 1501 1503 1505 1506 1507 1509 1510 1512 1513 1514 1515 1516 1518 1519 1520 1521 1523 1524 1525 1525 1526 1526 1526 1527 1527 1527 1527
1505 1505 1506 1507 1506 1504 1503 1502 1500 1499 1499 1498 1499 1499 1499 1499 1498 1498 1499 1498 1498 1497 1496 1495 1495 1495 1494 1494 1493 1492 1492 1491 1491 1490 1489 1488 1487 1486 1485 1485 1484 1484 1483 1482 1482 1482 1481 1481 1481 1481 1482 1483 1484 1486 1488 1490 1492 1495 1497 1499 1502 1503 1504 1506 1507 1509 1511 1512 1513 1514 1515 1517 1518 1520 1521 1522 1523 1524 1525 1525 1526 1526 1526 1527 1527 1527
1505 1505 1505 1507 1508 1506 1503 1502 1501 1501 1500 1499 1498 1499 1499 1498 1497 1496 1496 1496 1495 1494 1493 1493 1492 1492 1493 1493 1492 1491 1491 1490 1489 1488 1488 1487 1486 1485 1485 1484 1483 1482 1482 1481 1481 1480 1480 1480 1480 1480 1481 1482 1483 1485 1486 1488 1490 1493 1495 1498 1500 1501 1503 1504 1506 1507 1509 1510 1511 1513 1514 1516 1517 1519 1520 1522 1523 1524 1524 1525 1525 1526 1526 1527 1527 1527
1503 1503 1504 1505 1506 1505 1502 1501 1502 1502 1501 1499 1498 1498 1498 1498 1497 1496 1495 1495 1494 1494 1493 1492 1490 1489 1489 1490 1490 1490 1489 1488 1488 1487 1486 1485 1485 1484 1483 1482 1482 1481 1480 1480 1479 1478 1478 1478 1478 1479 1480 1480 1482 1483 1485 1486 1488 1491 1493 1495 1497 1499 1501 1502 1504 1506 1507 1508 1510 1512 1513 1515 1516 1518 1519 1521 1522 1524 1524 1525 1525 1525 1526 1526 1527 1527